Regional Weather Roundup
Issued by NWS

Home | Current Version | Previous Version | Text Only | Print | Product List | Glossary Off
Versions: 1 2 3 4 5 6 7 8 9 10 11 12 13 14 15 16 17 18 19 20 21 22 23 24 25 26 27 28 29 30 31 32 33 34 35 36 37 38 39 40 41 42 43 44 45 46 47 48 49 50

000
ASUS43 KBIS 280910
RWRND

NORTH DAKOTA REGIONAL WEATHER ROUNDUP
NATIONAL WEATHER SERVICE BISMARCK ND
400 AM CDT THU MAY 28 2015

NOTE: "FAIR" INDICATES FEW OR NO CLOUDS BELOW 12,000 FEET WITH NO
SIGNIFICANT WEATHER AND/OR OBSTRUCTIONS TO VISIBILITY.


NDZ001>003-009>011-017-281000-
NORTHWEST NORTH DAKOTA

CITY           SKY/WX    TMP DP  RH WIND       PRES   REMARKS
WILLISTON      MOCLDY    57  54  89 SE3       29.87F
MINOT          LGT RAIN  58  56  93 E7        29.89F
MINOT AFB      RAIN      57  57 100 E8        29.89S FOG
$$

NDZ018>021-031>035-040>046-281000-
SOUTHWEST NORTH DAKOTA

CITY           SKY/WX    TMP DP  RH WIND       PRES   REMARKS
BISMARCK       MOCLDY    58  56  93 S7        29.90S
DICKINSON      FOG       48  47  96 SW3       29.88S VSB 1/4
GARRISON         N/A     60  57  89 E5        29.88F
HETTINGER ARPT FOG       48  46  93 CALM      29.91S VSB 3/4
$$

NDZ004>008-012>016-024-026-027-054-281000-
NORTHEAST NORTH DAKOTA

CITY           SKY/WX    TMP DP  RH WIND       PRES   REMARKS
GRAND FORKS    CLOUDY    59  53  80 W16       29.95S
GRND FRKS AFB  LGT RAIN  57  54  87 CALM      29.96R
DEVILS LAKE    CLOUDY    57  50  77 E9        29.94S
$$

NDZ022-023-025-028>030-036>039-047>053-281000-
SOUTHEAST NORTH DAKOTA

CITY           SKY/WX    TMP DP  RH WIND       PRES   REMARKS
FARGO          LGT RAIN  65  56  72 SW5       29.96R
JAMESTOWN      LGT RAIN  60  56  86 SE7       29.92F
$$




USA.gov is the U.S. government's official web portal to all federal, state and local government web resources and services.